Regional Weather Roundup
Issued by NWS

Home | Current Version | Previous Version | Text Only | Print | Product List | Glossary Off
Versions: 1 2 3 4 5 6 7 8 9 10 11 12 13 14 15 16 17 18 19 20 21 22 23 24 25 26 27 28 29 30 31 32 33 34 35 36 37 38 39 40 41 42 43 44 45 46 47 48 49 50

000
ASUS45 KBOI 300510
RWRID
WEATHER ROUNDUP FOR IDAHO
NATIONAL WEATHER SERVICE BOISE ID
1100 PM MDT TUE JUL 29 2014

NOTE: "FAIR" INDICATES FEW OR NO CLOUDS BELOW 12000 FEET
WITH NO SIGNIFICANT WEATHER AND/OR OBSTRUCTIONS TO VISIBILITY

IDZ012-014-300600-
SOUTHWEST IDAHO


CITY           SKY/WX    TMP DP  RH WIND       PRES   REMARKS
BOISE          MOCLDY    81  54  39 SE15G23   30.11R
CALDWELL       MOCLDY    81  46  30 CALM      30.09R
MOUNTAIN HOME  CLOUDY    75  55  50 E21       30.14R
$$

IDZ016-017-300600-
SOUTHCENTRAL IDAHO


CITY           SKY/WX    TMP DP  RH WIND       PRES   REMARKS
BURLEY         CLOUDY    67  55  65 N8        30.22R
JEROME         LGT RAIN  67  54  63 NE29G39   30.22S
TWIN FALLS     CLOUDY    71  50  47 N22G29    30.23F
$$

IDZ019>023-300600-
SOUTHEAST IDAHO


CITY           SKY/WX    TMP DP  RH WIND       PRES   REMARKS
IDAHO FALLS    CLOUDY    62  56  80 NW3       30.24S
POCATELLO      CLEAR     65  56  72 CALM      30.23S
REXBURG        CLOUDY    66  50  56 E6        30.25S
$$

IDZ006-010-011-018-031-032-300600-
CENTRAL IDAHO MOUNTAINS


CITY           SKY/WX    TMP DP  RH WIND       PRES   REMARKS
MCCALL         MOCLDY    73  35  25 N8        30.20R
HAILEY         CLOUDY    63  55  77 CALM      30.33R
STANLEY          N/A     59  41  51 SE3       30.34R
SALMON         CLOUDY    70  50  49 CALM      30.17R
CHALLIS        CLOUDY    72  47  40 E8        30.25R
$$

IDZ002-004-006-007-026-300600-
NORTHERN IDAHO


CITY           SKY/WX    TMP DP  RH WIND       PRES   REMARKS
LEWISTON       CLEAR     88  34  14 S6        29.93R
LOWELL           N/A     71  58  63 N3        30.00R
COEUR D`ALENE  CLEAR     73  54  49 S7        30.00R
MULLAN PASS    CLEAR     71  36  27 NW6       30.30R
$$



USA.gov is the U.S. government's official web portal to all federal, state and local government web resources and services.